COSMOS 397 DEB *, 19024

Orbit data source: Space-Track

COSMOS 397 DEB *, 19024 is space debris in LEO originally from a launch on Thu, 25 Feb 1971 UTC launched from the Tyuratam Missile And Space Complex (TTMTR). Debris objects in space refer to the collection of defunct objects orbiting the Earth. Examples of debris include non-operational satellites, rocket bodies, and fragments generated from explosions, collisions, or faulty payload assembly.

Loading next visibility...
Identifier
19024, 1971-015DN
Orbit
LEO
Country
Flag of CISCIS
Related business
Manufacturer
Unknown
Mission
Spacecraft
Bus & Motor
Unknown
Mass
Unknown
Launch date (UTC)
1971-02-25 (55 years ago)
Launch vehicle
Unknown
Launch site
Tyuratam Missile And Space Complex (TTMTR)
Object type
Payload
Rocket body
Debris
Shape & HBR
Unknown shape, 0.1 m
Radar Cross Section
Small (<0.1 m²)

Expand to show TLE details & history
Last TLE update: 21 hours ago

TLE from 21 hours ago
0 COSMOS 397 DEB *
1 19024U 71015DN  25349.86306038  .00000704  00000-0  89382-3 0  9991
2 19024  66.2747 141.3031 0494766 120.6981  26.5386 13.26577087821407
Epoch: 2025-12-15T20:42Z
TLE epoch observation values (Epoch: 2025-12-15T20:42:48.416Z)
Latitude
27.37318°
Longitude
-87.23566°
Altitude
832.383 km
Speed
7.6 km/s
True Right ascension
20h 32m 53s
True Declination
27° 14' 04"
Sunlit
Object was in daylight at epoch
Visualization orbit readout
Latitude
Unknown
Longitude
Unknown
Altitude
Unknown
Speed
Unknown
Apparent Right ascension
Unknown
Apparent Declination
Unknown
Sunlit
N/A
Visualization observer readout
Local Sidereal Time
16:53:39
Azimuth
Unknown
Elevation
Unknown
Doppler factor
Unknown
Orbital elements
Apogee altitude
1,531.071 km
Perigee altitude
785.326 km
Semi-major axis
7,536.336 km
Eccentricity
0.04948
Inclination
66.2747°
RAAN
141.3031°
Arg. of periapsis
120.6981°
True anomaly
29.21879°
Mean anomaly
26.5386°
Eccentric anomaly
27.86349°
Mean motion
3.31744 °/min
Orbital period
108.52 mins
BSTAR
0.00089382
Loading maneuver chart data...
Computing Atmospheric mass density...
Loading historical data...
Loading historical data...
Loading historical data...
Loading historical data...
Loading historical data...
Loading historical data...
Loading historical data...

Documentation

Showing up to 5 results
|